Mojave, CA

11:17 PM PST on December 09, 2019 (GMT -0800)
Mojave

Weather History for KMHV - May, 2019

Change the Weather History Date:

Monday, May 13, 2019

  Actual Average Record
Temperature  
Mean Temperature 75 °F -  
Max Temperature 82 °F 81 °F 95 °F (2013)
Min Temperature 68 °F 54 °F 37 °F (1998)
Cooling Degree Days 10    
Growing Degree Days 25 (Base 50)    
Moisture  
Dew Point 41 °F    
Average Humidity 32    
Maximum Humidity 49    
Minimum Humidity 21    
Precipitation  
Precipitation 0.00 in - - ()
Sea Level Pressure  
Sea Level Pressure 29.96 in    
Wind  
Wind Speed 22 mph (WNW)    
Max Wind Speed 30 mph    
Max Gust Speed 39 mph    
Visibility 10 miles    
Events      
Averages and records for this station are not official NWS values.
T = Trace of Precipitation, MM = Missing Value Source: NWS Daily Summary

Daily Weather History Graph

Daily Weather History Graph

Search for Another Location

Airport or City:

Astronomy

May. 13, 2019 Rise Set
Actual Time 5:50 AM PDT 7:47 PM PDT
Civil Twilight 5:22 AM PDT 8:15 PM PDT
Nautical Twilight 4:48 AM PDT 8:49 PM PDT
Astronomical Twilight 4:12 AM PDT 9:26 PM PDT
Moon 2:21 PM PDT (5/13) 2:53 AM PDT (5/13)
Length of Visible Light 14h 53m
Length of Day
13h 57m
Waxing Gibbous, 70% of the Moon is Illuminated
May 13
Waxing Gibbous
May 18
Full
May 26
Last Quarter
Jun 3
New
Jun 9
First Quarter

Hourly Weather History & Observations

Time (PDT) Temp. Dew Point Humidity Pressure Visibility Wind Dir Wind Speed Gust Speed Precip Events Conditions
12:00 AM 69.8 °F 44.6 °F 40% 29.94 in 10.0 mi WNW 27.6 mph 34.5 mph N/A   Clear
12:20 AM 69.8 °F 44.6 °F 40% 29.94 in 10.0 mi NW 25.3 mph 35.7 mph N/A   Clear
12:40 AM 69.8 °F 44.6 °F 40% 29.94 in 10.0 mi NW 28.8 mph 35.7 mph N/A   Clear
1:00 AM 69.8 °F 44.6 °F 40% 29.93 in 10.0 mi NW 26.5 mph 34.5 mph N/A   Clear
1:20 AM 69.8 °F 48.2 °F 46% 29.93 in 10.0 mi NW 29.9 mph 35.7 mph N/A   Clear
1:40 AM 69.8 °F 48.2 °F 46% 29.93 in 10.0 mi NW 26.5 mph 36.8 mph N/A   Clear
2:00 AM 69.8 °F 48.2 °F 46% 29.93 in 10.0 mi NW 25.3 mph 36.8 mph N/A   Clear
2:20 AM 69.8 °F 48.2 °F 46% 29.93 in 10.0 mi NW 28.8 mph - N/A   Clear
2:40 AM 68.0 °F 48.2 °F 49% 29.93 in 10.0 mi NW 21.9 mph 38.0 mph N/A   Clear
3:00 AM 68.0 °F 48.2 °F 49% 29.94 in 10.0 mi NW 26.5 mph 34.5 mph N/A   Clear
3:20 AM 68.0 °F 48.2 °F 49% 29.94 in 10.0 mi NW 20.7 mph 28.8 mph N/A   Clear
3:40 AM 68.0 °F 48.2 °F 49% 29.94 in 10.0 mi NW 20.7 mph 29.9 mph N/A   Clear
4:00 AM 68.0 °F 48.2 °F 49% 29.94 in 10.0 mi NW 17.3 mph 29.9 mph N/A   Clear
4:20 AM 68.0 °F 48.2 °F 49% 29.95 in 10.0 mi NW 19.6 mph 26.5 mph N/A   Clear
4:40 AM 68.0 °F 48.2 °F 49% 29.95 in 10.0 mi NW 16.1 mph 23.0 mph N/A   Clear
5:00 AM 68.0 °F 48.2 °F 49% 29.95 in 10.0 mi NW 15.0 mph 25.3 mph N/A   Clear
5:20 AM 68.0 °F 46.4 °F 46% 29.95 in 10.0 mi NNW 12.7 mph 21.9 mph N/A   Clear
5:40 AM 68.0 °F 46.4 °F 46% 29.96 in 10.0 mi NW 15.0 mph 24.2 mph N/A   Clear
6:00 AM 68.0 °F 44.6 °F 43% 29.97 in 10.0 mi NW 13.8 mph - N/A   Clear
6:20 AM 68.0 °F 44.6 °F 43% 29.97 in 10.0 mi NW 17.3 mph 25.3 mph N/A   Clear
6:40 AM 68.0 °F 44.6 °F 43% 29.97 in 10.0 mi NW 15.0 mph 21.9 mph N/A   Clear
7:00 AM 69.8 °F 42.8 °F 38% 29.98 in 10.0 mi NW 16.1 mph 24.2 mph N/A   Clear
7:20 AM 69.8 °F 42.8 °F 38% 29.98 in 10.0 mi NW 16.1 mph 21.9 mph N/A   Clear
7:40 AM 71.6 °F 42.8 °F 35% 29.99 in 10.0 mi WNW 13.8 mph 20.7 mph N/A   Clear
8:00 AM 71.6 °F 42.8 °F 35% 29.99 in 10.0 mi WNW 17.3 mph - N/A   Clear
8:20 AM 73.4 °F 37.4 °F 27% 29.99 in 10.0 mi NW 12.7 mph - N/A   Clear
8:40 AM 75.2 °F 37.4 °F 25% 29.99 in 10.0 mi NW 9.2 mph - N/A   Clear
9:00 AM 75.2 °F 39.2 °F 27% 29.99 in 10.0 mi Calm Calm 16.1 mph N/A   Clear
9:20 AM 77.0 °F 41.0 °F 28% 29.99 in 10.0 mi NW 5.8 mph 18.4 mph N/A   Clear
9:40 AM 77.0 °F 41.0 °F 28% 29.99 in 10.0 mi WNW 12.7 mph - N/A   Clear
10:00 AM 77.0 °F 39.2 °F 26% 29.99 in 10.0 mi West 15.0 mph - N/A   Clear
10:20 AM 78.8 °F 39.2 °F 24% 29.99 in 10.0 mi WNW 17.3 mph - N/A   Clear
10:40 AM 78.8 °F 39.2 °F 24% 29.99 in 10.0 mi WNW 15.0 mph 20.7 mph N/A   Clear
11:00 AM 78.8 °F 37.4 °F 23% 29.99 in 10.0 mi WNW 13.8 mph 21.9 mph N/A   Clear
11:20 AM 80.6 °F 37.4 °F 21% 29.99 in 10.0 mi West 15.0 mph 21.9 mph N/A   Clear
11:40 AM 80.6 °F 39.2 °F 23% 29.99 in 10.0 mi WNW 16.1 mph - N/A   Clear
12:00 PM 80.6 °F 39.2 °F 23% 29.99 in 10.0 mi WNW 16.1 mph - N/A   Clear
12:20 PM 80.6 °F 41.0 °F 24% 29.98 in 10.0 mi West 16.1 mph 23.0 mph N/A   Clear
12:40 PM 80.6 °F 41.0 °F 24% 29.98 in 10.0 mi WNW 18.4 mph 25.3 mph N/A   Clear
1:00 PM 80.6 °F 42.8 °F 26% 29.98 in 10.0 mi WNW 20.7 mph - N/A   Clear
1:20 PM 80.6 °F 41.0 °F 24% 29.97 in 10.0 mi WNW 19.6 mph 25.3 mph N/A   Clear
1:40 PM 82.4 °F 39.2 °F 21% 29.97 in 10.0 mi WNW 26.5 mph - N/A   Clear
2:00 PM 80.6 °F 41.0 °F 24% 29.97 in 10.0 mi WNW 19.6 mph 29.9 mph N/A   Clear
2:20 PM 82.4 °F 41.0 °F 23% 29.96 in 10.0 mi WNW 23.0 mph 31.1 mph N/A   Clear
2:40 PM 80.6 °F 39.2 °F 23% 29.95 in 10.0 mi WNW 23.0 mph 29.9 mph N/A   Clear
3:00 PM 80.6 °F 41.0 °F 24% 29.95 in 10.0 mi WNW 21.9 mph 29.9 mph N/A   Clear
3:20 PM 80.6 °F 41.0 °F 24% 29.94 in 10.0 mi WNW 21.9 mph 31.1 mph N/A   Clear
3:40 PM 80.6 °F 41.0 °F 24% 29.94 in 10.0 mi WNW 23.0 mph 33.4 mph N/A   Clear
4:00 PM 80.6 °F 41.0 °F 24% 29.94 in 10.0 mi WNW 23.0 mph 33.4 mph N/A   Clear
4:20 PM 80.6 °F 41.0 °F 24% 29.93 in 10.0 mi WNW 25.3 mph 31.1 mph N/A   Clear
4:40 PM 80.6 °F 41.0 °F 24% 29.93 in 10.0 mi WNW 27.6 mph 33.4 mph N/A   Clear
5:00 PM 80.6 °F 41.0 °F 24% 29.93 in 10.0 mi WNW 27.6 mph 34.5 mph N/A   Clear
5:20 PM 78.8 °F 41.0 °F 26% 29.92 in 10.0 mi WNW 27.6 mph - N/A   Clear
5:40 PM 78.8 °F 42.8 °F 28% 29.93 in 10.0 mi WNW 25.3 mph 35.7 mph N/A   Clear
6:00 PM 78.8 °F 41.0 °F 26% 29.93 in 10.0 mi WNW 24.2 mph 33.4 mph N/A   Clear
6:20 PM 77.0 °F 41.0 °F 28% 29.92 in 10.0 mi WNW 25.3 mph 34.5 mph N/A   Clear
6:40 PM 75.2 °F 39.2 °F 27% 29.93 in 10.0 mi WNW 20.7 mph 32.2 mph N/A   Clear
7:00 PM 75.2 °F 39.2 °F 27% 29.93 in 10.0 mi WNW 19.6 mph 27.6 mph N/A   Clear
7:20 PM 73.4 °F 37.4 °F 27% 29.94 in 10.0 mi WNW 18.4 mph 28.8 mph N/A   Clear
7:40 PM 71.6 °F 37.4 °F 29% 29.94 in 10.0 mi West 18.4 mph 31.1 mph N/A   Clear
8:00 PM 71.6 °F 37.4 °F 29% 29.94 in 10.0 mi West 23.0 mph 31.1 mph N/A   Clear
8:20 PM 71.6 °F 35.6 °F 27% 29.94 in 10.0 mi WNW 27.6 mph 38.0 mph N/A   Clear
8:40 PM 69.8 °F 35.6 °F 28% 29.95 in 10.0 mi WNW 27.6 mph 39.1 mph N/A   Clear
9:00 PM 69.8 °F 33.8 °F 27% 29.94 in 10.0 mi WNW 29.9 mph 38.0 mph N/A   Clear
9:20 PM 69.8 °F 33.8 °F 27% 29.95 in 10.0 mi WNW 27.6 mph 34.5 mph N/A   Clear
9:40 PM 69.8 °F 33.8 °F 27% 29.96 in 10.0 mi WNW 26.5 mph 34.5 mph N/A   Clear
10:00 PM 69.8 °F 35.6 °F 28% 29.97 in 10.0 mi WNW 24.2 mph 33.4 mph N/A   Clear
10:20 PM 69.8 °F 35.6 °F 28% 29.97 in 10.0 mi WNW 24.2 mph 34.5 mph N/A   Clear
10:40 PM 69.8 °F 33.8 °F 27% 29.97 in 10.0 mi WNW 25.3 mph 32.2 mph N/A   Clear
11:00 PM 69.8 °F 33.8 °F 27% 29.97 in 10.0 mi WNW 24.2 mph 32.2 mph N/A   Clear
11:20 PM 69.8 °F 33.8 °F 27% 29.97 in 10.0 mi NW 23.0 mph 33.4 mph N/A   Clear
11:40 PM 68.0 °F 35.6 °F 30% 29.97 in 10.0 mi NW 26.5 mph 33.4 mph N/A   Clear